QPF
0.04 0.03 0.01 0.01 0.01 0.01 0.01 0.01 0.01 0.01 0.01 0.01 0.01 0.02 0.02 0.01 0.01 0.02 0.02 0.02 0.02 0.03 0.03 0.03 0.03 0.02 0.02 0.02 0.02 0.02 0.01 0.02 0.03 0.02 0.02 0.01 0.01 0.01 0.01 0.00 0.00 0.00 0.00
0.02 0.01 0.01 0.01 0.01 0.01 0.01 0.00 0.00 0.00 0.01 0.01 0.01 0.01 0.02 0.02 0.01 0.01 0.02 0.01 0.01 0.02 0.02 0.01 0.01 0.01 0.01 0.01 0.02 0.05 0.06 0.04 0.03 0.01 0.01 0.01 0.02 0.01 0.01 0.00 0.00 0.00 0.00
0.01 0.01 0.00 0.00 0.01 0.00 0.00 0.00 0.00 0.00 0.01 0.00 0.00 0.01 0.02 0.02 0.01 0.01 0.01 0.01 0.01 0.01 0.01 0.01 0.01 0.01 0.00 0.01 0.02 0.04 0.03 0.02 0.01 0.01 0.01 0.02 0.02 0.02 0.01 0.01 0.00 0.00 0.00
0.01 0.01 0.00 0.00 0.01 0.01 0.00 0.01 0.00 0.00 0.00 0.00 0.00 0.01 0.02 0.02 0.01 0.01 0.01 0.01 0.01 0.01 0.01 0.01 0.01 0.01 0.01 0.00 0.01 0.01 0.02 0.02 0.01 0.01 0.01 0.01 0.01 0.01 0.02 0.01 0.00 0.00 0.00
0.01 0.00 0.00 0.00 0.00 0.01 0.01 0.01 0.01 0.01 0.01 0.01 0.01 0.02 0.02 0.01 0.01 0.00 0.01 0.01 0.01 0.01 0.01 0.01 0.01 0.01 0.01 0.00 0.01 0.01 0.02 0.02 0.02 0.01 0.01 0.00 0.00 0.01 0.01 0.01 0.01 0.00 0.00
0.01 0.00 0.00 0.01 0.00 0.01 0.01 0.01 0.02 0.01 0.01 0.01 0.01 0.02 0.02 0.01 0.01 0.00 0.00 0.01 0.01 0.01 0.01 0.01 0.01 0.01 0.01 0.01 0.01 0.01 0.01 0.01 0.01 0.01 0.01 0.00 0.00 0.01 0.01 0.01 0.01 0.01 0.00
0.00 0.00 0.00 0.01 0.01 0.00 0.01 0.01 0.02 0.02 0.02 0.02 0.02 0.02 0.02 0.01 0.01 0.01 0.00 0.01 0.01 0.01 0.01 0.01 0.01 0.02 0.01 0.01 0.01 0.01 0.01 0.01 0.01 0.00 0.00 0.00 0.00 0.01 0.01 0.01 0.01 0.01 0.00
0.01 0.00 0.00 0.00 0.00 0.01 0.01 0.01 0.02 0.02 0.02 0.02 0.03 0.02 0.02 0.01 0.01 0.01 0.00 0.00 0.00 0.01 0.01 0.01 0.01 0.01 0.01 0.01 0.01 0.01 0.01 0.01 0.00 0.00 0.00 0.00 0.00 0.02 0.02 0.01 0.01 0.01 0.01
0.00 0.00 0.00 0.00 0.00 0.01 0.01 0.01 0.01 0.01 0.02 0.02 0.03 0.02 0.02 0.02 0.01 0.01 0.01 0.00 0.00 0.01 0.01 0.01 0.01 0.01 0.00 0.00 0.01 0.01 0.01 0.01 0.00 0.00 0.00 0.00 0.00 0.01 0.01 0.00 0.00 0.01 0.01
0.00 0.00 0.00 0.00 0.00 0.01 0.01 0.00 0.01 0.01 0.01 0.02 0.02 0.02 0.02 0.02 0.02 0.02 0.01 0.00 0.00 0.00 0.00 0.00 0.01 0.01 0.00 0.00 0.00 0.01 0.00 0.00 0.00 0.00 0.01 0.01 0.00 0.01 0.01 0.00 0.00 0.01 0.01
0.00 0.00 0.00 0.00 0.00 0.01 0.01 0.00 0.00 0.00 0.01 0.01 0.01 0.01 0.02 0.01 0.01 0.01 0.01 0.00 0.00 0.00 0.00 0.00 0.00 0.00 0.00 0.01 0.01 0.01 0.00 0.00 0.00 0.00 0.00 0.00 0.00 0.00 0.01 0.01 0.00 0.00 0.01
0.01 0.01 0.01 0.01 0.01 0.01 0.01 0.01 0.00 0.00 0.01 0.01 0.01 0.01 0.02 0.02 0.01 0.01 0.01 0.00 0.00 0.00 0.00 0.00 0.00 0.00 0.01 0.01 0.00 0.00 0.00 0.00 0.00 0.00 0.00 0.00 0.01 0.00 0.01 0.01 0.01 0.00 0.00
0.01 0.01 0.01 0.02 0.02 0.01 0.01 0.01 0.01 0.01 0.01 0.01 0.01 0.01 0.01 0.01 0.01 0.01 0.01 0.00 0.00 0.00 0.00 0.00 0.00 0.00 0.00 0.00 0.00 0.00 0.00 0.00 0.01 0.01 0.00 0.00 0.00 0.00 0.01 0.00 0.00 0.00 0.00
0.00 0.00 0.01 0.01 0.01 0.01 0.01 0.01 0.01 0.01 0.01 0.01 0.01 0.01 0.01 0.01 0.01 0.01 0.01 0.01 0.00 0.00 0.00 0.01 0.00 0.00 0.00 0.01 0.01 0.00 0.00 0.00 0.00 0.00 0.00 0.00 0.00 0.00 0.00 0.00 0.01 0.01 0.00
0.00 0.00 0.00 0.00 0.00 0.01 0.01 0.01 0.01 0.01 0.01 0.01 0.02 0.02 0.02 0.01 0.01 0.01 0.01 0.01 0.01 0.01 0.00 0.00 0.00 0.01 0.01 0.01 0.01 0.00 0.00 0.00 0.00 0.00 0.01 0.00 0.00 0.00 0.01 0.01 0.01 0.01 0.01
0.00 0.00 0.00 0.00 0.00 0.00 0.01 0.01 0.01 0.01 0.01 0.01 0.02 0.03 0.02 0.02 0.01 0.01 0.02 0.02 0.02 0.01 0.01 0.01 0.01 0.01 0.01 0.01 0.01 0.01 0.01 0.00 0.00 0.00 0.01 0.00 0.00 0.00 0.01 0.01 0.01 0.01 0.00
0.00 0.00 0.00 0.00 0.00 0.00 0.00 0.00 0.01 0.01 0.01 0.01 0.01 0.01 0.01 0.01 0.02 0.02 0.01 0.01 0.01 0.01 0.01 0.01 0.01 0.01 0.01 0.01 0.01 0.02 0.01 0.01 0.01 0.00 0.00 0.00 0.00 0.00 0.00 0.01 0.01 0.00 0.00
0.00 0.00 0.00 0.00 0.00 0.00 0.00 0.00 0.01 0.01 0.01 0.00 0.00 0.01 0.01 0.01 0.02 0.02 0.02 0.02 0.02 0.02 0.02 0.01 0.01 0.01 0.01 0.01 0.01 0.02 0.01 0.01 0.01 0.01 0.00 0.00 0.00 0.00 0.01 0.01 0.00 0.00 0.01
0.00 0.00 0.00 0.00 0.00 0.00 0.00 0.01 0.01 0.01 0.01 0.01 0.00 0.00 0.00 0.00 0.01 0.01 0.01 0.02 0.02 0.02 0.02 0.02 0.01 0.01 0.01 0.01 0.01 0.02 0.01 0.01 0.01 0.01 0.01 0.01 0.00 0.00 0.01 0.01 0.01 0.01 0.01
0.00 0.00 0.00 0.00 0.01 0.00 0.00 0.00 0.01 0.01 0.01 0.01 0.01 0.00 0.01 0.01 0.01 0.01 0.01 0.01 0.01 0.01 0.02 0.01 0.01 0.01 0.01 0.01 0.01 0.01 0.01 0.01 0.01 0.01 0.01 0.01 0.01 0.02 0.01 0.01 0.01 0.01 0.01
0.00 0.01 0.01 0.00 0.00 0.00 0.00 0.00 0.01 0.01 0.01 0.01 0.01 0.01 0.01 0.01 0.02 0.01 0.01 0.01 0.01 0.01 0.02 0.02 0.01 0.01 0.01 0.01 0.01 0.01 0.01 0.01 0.01 0.01 0.01 0.01 0.02 0.02 0.02 0.02 0.01 0.01 0.01
0.00 0.01 0.01 0.00 0.00 0.00 0.00 0.00 0.00 0.00 0.00 0.00 0.01 0.01 0.01 0.01 0.01 0.01 0.01 0.01 0.02 0.02 0.02 0.02 0.01 0.01 0.01 0.01 0.01 0.01 0.01 0.02 0.02 0.02 0.02 0.02 0.02 0.02 0.03 0.02 0.02 0.02 0.01
0.00 0.00 0.00 0.00 0.00 0.00 0.00 0.00 0.00 0.00 0.00 0.00 0.00 0.01 0.01 0.01 0.01 0.01 0.01 0.01 0.01 0.02 0.03 0.03 0.02 0.01 0.01 0.01 0.01 0.01 0.01 0.01 0.02 0.02 0.02 0.02 0.02 0.02 0.02 0.02 0.01 0.01 0.01
0.00 0.00 0.00 0.00 0.00 0.00 0.00 0.01 0.01 0.01 0.01 0.01 0.01 0.01 0.01 0.01 0.00 0.00 0.00 0.00 0.01 0.02 0.03 0.04 0.03 0.02 0.01 0.01 0.01 0.02 0.02 0.02 0.02 0.02 0.02 0.02 0.01 0.01 0.01 0.01 0.01 0.01 0.01
0.00 0.01 0.01 0.01 0.01 0.00 0.00 0.00 0.00 0.00 0.01 0.01 0.01 0.00 0.00 0.00 0.00 0.00 0.00 0.00 0.00 0.01 0.03 0.03 0.03 0.02 0.01 0.01 0.02 0.02 0.02 0.02 0.02 0.02 0.02 0.02 0.01 0.01 0.01 0.01 0.00 0.00 0.01
0.01 0.02 0.02 0.02 0.01 0.01 0.01 0.01 0.00 0.00 0.00 0.01 0.00 0.00 0.00 0.00 0.00 0.00 0.00 0.00 0.00 0.01 0.01 0.02 0.02 0.02 0.01 0.01 0.01 0.02 0.02 0.02 0.02 0.02 0.01 0.02 0.02 0.02 0.02 0.01 0.01 0.01 0.01
MSLP
1020.03 1020.12 1020.23 1020.33 1020.41 1020.46 1020.49 1020.53 1020.59 1020.71 1020.87 1021.09 1021.32 1021.54 1021.72 1021.80 1021.79 1021.68 1021.49 1021.27 1021.05 1020.89 1020.82 1020.86 1021.02 1021.26 1021.57 1021.90 1022.23 1022.54 1022.81 1023.06 1023.29 1023.53 1023.78 1024.05 1024.32 1024.57 1024.78 1024.92 1024.98 1024.95 1024.83
1019.98 1020.14 1020.30 1020.44 1020.54 1020.60 1020.64 1020.69 1020.78 1020.92 1021.13 1021.40 1021.68 1021.95 1022.16 1022.27 1022.26 1022.14 1021.93 1021.67 1021.43 1021.24 1021.14 1021.17 1021.31 1021.54 1021.82 1022.13 1022.42 1022.68 1022.91 1023.12 1023.32 1023.54 1023.79 1024.08 1024.40 1024.73 1025.03 1025.29 1025.47 1025.56 1025.57
1019.81 1020.06 1020.30 1020.49 1020.63 1020.71 1020.77 1020.83 1020.93 1021.09 1021.33 1021.63 1021.96 1022.26 1022.50 1022.63 1022.63 1022.51 1022.30 1022.04 1021.79 1021.59 1021.49 1021.51 1021.63 1021.84 1022.09 1022.35 1022.59 1022.79 1022.96 1023.10 1023.25 1023.44 1023.68 1023.98 1024.33 1024.72 1025.11 1025.46 1025.76 1025.98 1026.11
1019.52 1019.88 1020.21 1020.47 1020.66 1020.77 1020.84 1020.91 1021.02 1021.20 1021.46 1021.78 1022.14 1022.47 1022.73 1022.89 1022.91 1022.82 1022.62 1022.39 1022.15 1021.98 1021.89 1021.91 1022.02 1022.20 1022.42 1022.62 1022.80 1022.93 1023.02 1023.10 1023.19 1023.33 1023.54 1023.83 1024.20 1024.62 1025.08 1025.52 1025.92 1026.25 1026.50
1019.12 1019.59 1020.02 1020.37 1020.61 1020.76 1020.86 1020.94 1021.06 1021.25 1021.52 1021.86 1022.23 1022.59 1022.88 1023.07 1023.13 1023.07 1022.92 1022.73 1022.53 1022.39 1022.33 1022.37 1022.48 1022.64 1022.82 1022.98 1023.10 1023.16 1023.18 1023.18 1023.21 1023.30 1023.47 1023.74 1024.10 1024.54 1025.02 1025.52 1025.98 1026.40 1026.75
1018.66 1019.24 1019.76 1020.19 1020.50 1020.69 1020.82 1020.92 1021.05 1021.26 1021.54 1021.89 1022.28 1022.66 1022.98 1023.21 1023.31 1023.30 1023.21 1023.06 1022.93 1022.83 1022.81 1022.87 1022.99 1023.14 1023.30 1023.41 1023.48 1023.49 1023.45 1023.40 1023.37 1023.41 1023.54 1023.77 1024.10 1024.52 1025.00 1025.50 1026.01 1026.47 1026.89
1018.20 1018.86 1019.47 1019.96 1020.33 1020.57 1020.73 1020.86 1021.01 1021.23 1021.53 1021.90 1022.32 1022.72 1023.07 1023.34 1023.48 1023.53 1023.48 1023.40 1023.32 1023.27 1023.29 1023.37 1023.50 1023.65 1023.79 1023.88 1023.92 1023.89 1023.82 1023.73 1023.67 1023.66 1023.75 1023.93 1024.21 1024.59 1025.03 1025.51 1026.00 1026.48 1026.94
1017.79 1018.51 1019.18 1019.72 1020.13 1020.42 1020.61 1020.78 1020.97 1021.22 1021.54 1021.94 1022.37 1022.80 1023.18 1023.47 1023.66 1023.75 1023.75 1023.72 1023.68 1023.68 1023.72 1023.82 1023.96 1024.12 1024.25 1024.33 1024.36 1024.32 1024.24 1024.14 1024.06 1024.03 1024.08 1024.21 1024.44 1024.75 1025.12 1025.54 1025.99 1026.45 1026.90
1017.46 1018.22 1018.91 1019.49 1019.93 1020.26 1020.50 1020.70 1020.93 1021.22 1021.58 1022.00 1022.46 1022.91 1023.31 1023.63 1023.84 1023.96 1024.00 1024.00 1023.99 1024.01 1024.08 1024.19 1024.34 1024.49 1024.62 1024.71 1024.75 1024.73 1024.66 1024.58 1024.50 1024.46 1024.49 1024.58 1024.74 1024.98 1025.27 1025.61 1025.99 1026.39 1026.81
1017.22 1017.98 1018.68 1019.27 1019.74 1020.09 1020.38 1020.63 1020.91 1021.24 1021.64 1022.09 1022.57 1023.04 1023.45 1023.78 1024.00 1024.14 1024.19 1024.21 1024.22 1024.26 1024.33 1024.45 1024.60 1024.75 1024.90 1025.00 1025.06 1025.07 1025.04 1024.99 1024.94 1024.91 1024.92 1024.98 1025.10 1025.26 1025.48 1025.73 1026.02 1026.35 1026.72
1017.03 1017.76 1018.45 1019.04 1019.52 1019.91 1020.23 1020.54 1020.87 1021.25 1021.69 1022.17 1022.66 1023.14 1023.56 1023.89 1024.12 1024.26 1024.33 1024.35 1024.38 1024.42 1024.50 1024.62 1024.77 1024.93 1025.08 1025.21 1025.30 1025.34 1025.36 1025.35 1025.34 1025.34 1025.36 1025.40 1025.48 1025.60 1025.74 1025.91 1026.13 1026.38 1026.69
1016.82 1017.52 1018.17 1018.75 1019.24 1019.66 1020.02 1020.38 1020.76 1021.19 1021.67 1022.18 1022.69 1023.17 1023.58 1023.91 1024.15 1024.30 1024.38 1024.42 1024.46 1024.52 1024.61 1024.74 1024.90 1025.06 1025.23 1025.38 1025.49 1025.58 1025.63 1025.67 1025.70 1025.73 1025.77 1025.82 1025.89 1025.96 1026.06 1026.18 1026.32 1026.52 1026.76
1016.52 1017.18 1017.80 1018.37 1018.86 1019.30 1019.70 1020.11 1020.54 1021.02 1021.53 1022.06 1022.58 1023.07 1023.49 1023.82 1024.07 1024.23 1024.34 1024.42 1024.49 1024.58 1024.70 1024.85 1025.02 1025.21 1025.39 1025.55 1025.69 1025.80 1025.89 1025.96 1026.03 1026.09 1026.16 1026.22 1026.29 1026.35 1026.42 1026.51 1026.61 1026.76 1026.95
1016.09 1016.70 1017.29 1017.84 1018.34 1018.79 1019.24 1019.69 1020.17 1020.68 1021.22 1021.77 1022.31 1022.80 1023.23 1023.58 1023.85 1024.06 1024.21 1024.35 1024.48 1024.62 1024.79 1024.98 1025.18 1025.39 1025.58 1025.76 1025.91 1026.03 1026.14 1026.24 1026.33 1026.42 1026.51 1026.59 1026.67 1026.75 1026.81 1026.88 1026.97 1027.08 1027.24
1015.49 1016.06 1016.62 1017.15 1017.65 1018.13 1018.60 1019.10 1019.62 1020.17 1020.74 1021.30 1021.86 1022.36 1022.81 1023.19 1023.51 1023.77 1023.99 1024.20 1024.41 1024.63 1024.86 1025.11 1025.35 1025.58 1025.79 1025.97 1026.12 1026.25 1026.36 1026.46 1026.57 1026.67 1026.78 1026.89 1027.00 1027.09 1027.17 1027.25 1027.34 1027.44 1027.57
1014.74 1015.27 1015.80 1016.31 1016.81 1017.31 1017.82 1018.34 1018.90 1019.48 1020.07 1020.66 1021.23 1021.76 1022.24 1022.66 1023.03 1023.36 1023.67 1023.97 1024.26 1024.57 1024.88 1025.18 1025.46 1025.72 1025.94 1026.12 1026.26 1026.38 1026.49 1026.59 1026.70 1026.82 1026.94 1027.08 1027.21 1027.33 1027.44 1027.55 1027.64 1027.74 1027.86
1013.88 1014.38 1014.87 1015.37 1015.86 1016.37 1016.90 1017.46 1018.05 1018.65 1019.27 1019.89 1020.48 1021.03 1021.54 1022.01 1022.43 1022.84 1023.22 1023.61 1023.99 1024.37 1024.74 1025.10 1025.42 1025.70 1025.92 1026.10 1026.24 1026.35 1026.45 1026.54 1026.65 1026.78 1026.93 1027.09 1027.26 1027.42 1027.56 1027.70 1027.82 1027.93 1028.03
1012.97 1013.42 1013.89 1014.36 1014.85 1015.37 1015.91 1016.49 1017.10 1017.74 1018.38 1019.01 1019.62 1020.20 1020.74 1021.25 1021.72 1022.18 1022.63 1023.08 1023.53 1023.96 1024.38 1024.77 1025.12 1025.41 1025.64 1025.82 1025.95 1026.06 1026.15 1026.26 1026.38 1026.53 1026.70 1026.90 1027.10 1027.30 1027.48 1027.65 1027.80 1027.92 1028.03
1012.07 1012.48 1012.90 1013.35 1013.82 1014.34 1014.89 1015.49 1016.12 1016.78 1017.43 1018.09 1018.71 1019.31 1019.87 1020.41 1020.91 1021.40 1021.88 1022.36 1022.83 1023.29 1023.73 1024.13 1024.48 1024.77 1025.01 1025.19 1025.34 1025.46 1025.58 1025.70 1025.86 1026.04 1026.25 1026.48 1026.72 1026.97 1027.19 1027.39 1027.57 1027.71 1027.83
1011.21 1011.57 1011.95 1012.36 1012.82 1013.32 1013.88 1014.48 1015.12 1015.79 1016.46 1017.13 1017.77 1018.38 1018.95 1019.48 1019.99 1020.49 1020.97 1021.44 1021.90 1022.35 1022.77 1023.15 1023.49 1023.79 1024.03 1024.23 1024.40 1024.56 1024.72 1024.90 1025.10 1025.33 1025.59 1025.87 1026.16 1026.44 1026.70 1026.94 1027.14 1027.30 1027.43
1010.41 1010.71 1011.04 1011.42 1011.84 1012.33 1012.88 1013.48 1014.12 1014.79 1015.47 1016.14 1016.78 1017.39 1017.95 1018.48 1018.98 1019.44 1019.89 1020.33 1020.75 1021.15 1021.53 1021.89 1022.21 1022.50 1022.76 1022.99 1023.21 1023.42 1023.65 1023.89 1024.16 1024.46 1024.78 1025.11 1025.44 1025.76 1026.05 1026.30 1026.52 1026.71 1026.85
1009.66 1009.90 1010.18 1010.51 1010.90 1011.37 1011.89 1012.48 1013.11 1013.77 1014.44 1015.10 1015.74 1016.33 1016.89 1017.39 1017.85 1018.28 1018.68 1019.06 1019.42 1019.77 1020.10 1020.42 1020.72 1021.02 1021.30 1021.57 1021.85 1022.14 1022.44 1022.77 1023.12 1023.48 1023.86 1024.23 1024.60 1024.94 1025.25 1025.52 1025.75 1025.94 1026.10
1008.94 1009.13 1009.36 1009.65 1010.00 1010.42 1010.91 1011.46 1012.07 1012.71 1013.36 1014.00 1014.62 1015.19 1015.73 1016.20 1016.63 1017.02 1017.37 1017.69 1017.99 1018.29 1018.57 1018.86 1019.16 1019.46 1019.77 1020.10 1020.45 1020.81 1021.20 1021.61 1022.02 1022.45 1022.86 1023.27 1023.65 1023.99 1024.30 1024.57 1024.81 1025.01 1025.18
1008.24 1008.39 1008.58 1008.82 1009.13 1009.50 1009.94 1010.45 1011.00 1011.60 1012.21 1012.82 1013.41 1013.96 1014.47 1014.92 1015.32 1015.67 1015.98 1016.26 1016.52 1016.78 1017.04 1017.31 1017.61 1017.93 1018.29 1018.67 1019.08 1019.52 1019.97 1020.44 1020.90 1021.36 1021.79 1022.20 1022.57 1022.90 1023.20 1023.45 1023.68 1023.88 1024.07
1007.58 1007.70 1007.85 1008.05 1008.30 1008.62 1009.00 1009.44 1009.93 1010.46 1011.02 1011.58 1012.13 1012.65 1013.13 1013.56 1013.94 1014.27 1014.56 1014.82 1015.07 1015.31 1015.56 1015.84 1016.15 1016.50 1016.90 1017.33 1017.79 1018.27 1018.77 1019.26 1019.74 1020.20 1020.62 1020.99 1021.33 1021.63 1021.89 1022.12 1022.34 1022.54 1022.74
1006.99 1007.09 1007.21 1007.37 1007.58 1007.82 1008.13 1008.48 1008.89 1009.34 1009.82 1010.31 1010.81 1011.29 1011.74 1012.16 1012.53 1012.85 1013.14 1013.40 1013.65 1013.90 1014.17 1014.47 1014.80 1015.18 1015.61 1016.07 1016.55 1017.06 1017.55 1018.04 1018.49 1018.91 1019.28 1019.60 1019.89 1020.13 1020.35 1020.55 1020.75 1020.96 1021.18
Thickness
5726 5726 5726 5725 5725 5724 5724 5722 5720 5718 5716 5714 5712 5710 5708 5708 5707 5706 5705 5703 5703 5702 5701 5700 5699 5696 5695 5694 5693 5692 5690 5689 5689 5688 5686 5686 5687 5687 5685 5684 5684 5683 5682
5725 5724 5724 5723 5723 5721 5721 5720 5719 5717 5715 5712 5712 5709 5707 5707 5705 5703 5702 5701 5700 5699 5698 5697 5695 5693 5691 5690 5689 5687 5686 5685 5686 5685 5683 5681 5681 5680 5681 5680 5678 5679 5677
5724 5724 5722 5722 5720 5719 5719 5718 5717 5716 5713 5712 5710 5707 5705 5704 5703 5701 5699 5698 5697 5696 5695 5694 5692 5690 5689 5687 5685 5684 5682 5681 5682 5684 5681 5678 5675 5675 5676 5676 5674 5673 5672
5724 5723 5721 5720 5719 5718 5718 5718 5716 5715 5713 5711 5708 5706 5703 5701 5701 5700 5698 5696 5694 5693 5691 5690 5688 5687 5686 5684 5683 5682 5680 5678 5678 5678 5678 5680 5677 5672 5669 5669 5670 5668 5667
5723 5721 5720 5720 5719 5717 5716 5715 5715 5713 5711 5709 5706 5703 5702 5701 5699 5697 5695 5694 5692 5690 5688 5687 5686 5684 5683 5681 5679 5678 5677 5676 5675 5674 5673 5672 5671 5673 5669 5664 5663 5663 5663
5722 5721 5719 5718 5716 5715 5712 5711 5710 5709 5707 5705 5704 5701 5699 5697 5695 5694 5692 5691 5690 5687 5686 5684 5683 5681 5680 5678 5676 5674 5672 5672 5671 5670 5670 5668 5667 5665 5664 5661 5659 5658 5657
5722 5719 5717 5714 5713 5711 5710 5709 5707 5705 5704 5703 5701 5700 5697 5696 5694 5692 5690 5689 5688 5685 5683 5681 5680 5678 5676 5675 5673 5671 5669 5668 5666 5666 5666 5665 5664 5662 5661 5658 5656 5653 5653
5721 5718 5716 5714 5711 5710 5708 5707 5705 5704 5702 5700 5699 5698 5695 5693 5692 5690 5689 5687 5685 5683 5680 5678 5677 5675 5673 5671 5669 5668 5666 5665 5663 5662 5660 5659 5659 5658 5656 5653 5650 5648 5648
5718 5716 5715 5713 5711 5708 5707 5706 5703 5702 5700 5698 5696 5695 5693 5691 5689 5687 5686 5684 5682 5680 5677 5675 5674 5672 5669 5667 5666 5664 5663 5661 5659 5658 5656 5655 5654 5652 5650 5649 5647 5644 5642
5716 5714 5712 5711 5709 5708 5705 5704 5702 5700 5697 5695 5693 5691 5689 5688 5686 5684 5682 5681 5679 5676 5674 5673 5671 5669 5666 5664 5662 5660 5658 5657 5654 5651 5651 5649 5649 5647 5645 5643 5642 5642 5640
5712 5711 5709 5708 5706 5704 5702 5700 5699 5697 5695 5693 5690 5687 5685 5684 5682 5681 5679 5677 5675 5673 5672 5669 5668 5666 5663 5661 5658 5656 5654 5652 5650 5648 5647 5645 5643 5642 5640 5638 5637 5636 5635
5709 5708 5705 5703 5701 5700 5699 5697 5696 5694 5691 5689 5686 5684 5682 5680 5678 5677 5675 5674 5672 5670 5668 5666 5664 5661 5659 5657 5655 5652 5649 5648 5646 5644 5642 5640 5638 5636 5635 5633 5632 5630 5630
5705 5704 5700 5698 5696 5695 5694 5693 5691 5689 5687 5684 5682 5680 5678 5676 5675 5673 5671 5669 5668 5666 5664 5662 5659 5657 5655 5652 5650 5649 5647 5645 5642 5640 5639 5637 5635 5632 5631 5628 5627 5625 5624
5701 5699 5695 5694 5693 5692 5690 5688 5687 5685 5683 5680 5677 5676 5674 5672 5670 5669 5666 5664 5663 5661 5659 5657 5655 5653 5650 5648 5646 5644 5642 5640 5638 5636 5634 5632 5631 5629 5627 5624 5622 5620 5618
5696 5694 5691 5691 5689 5687 5686 5684 5682 5680 5678 5676 5673 5672 5670 5667 5665 5663 5661 5659 5657 5655 5654 5651 5649 5647 5645 5643 5641 5639 5638 5636 5634 5632 5630 5627 5624 5621 5619 5618 5616 5614 5612
5691 5690 5689 5687 5685 5684 5683 5680 5677 5676 5673 5671 5668 5666 5664 5661 5659 5657 5655 5653 5651 5649 5647 5645 5644 5641 5639 5635 5632 5632 5632 5631 5629 5627 5625 5622 5618 5614 5610 5608 5607 5606 5607
5686 5686 5686 5684 5682 5681 5679 5676 5673 5671 5668 5666 5664 5661 5658 5655 5653 5652 5649 5647 5645 5644 5641 5640 5638 5636 5633 5629 5626 5623 5625 5626 5625 5623 5620 5618 5615 5610 5609 5605 5601 5600 5598
5681 5681 5681 5680 5678 5677 5674 5671 5668 5665 5662 5660 5658 5656 5653 5650 5647 5645 5643 5642 5641 5639 5636 5635 5633 5631 5628 5623 5620 5618 5619 5620 5619 5617 5615 5613 5611 5608 5605 5603 5601 5600 5597
5676 5676 5676 5675 5673 5671 5668 5665 5662 5659 5656 5653 5652 5650 5648 5645 5642 5640 5638 5636 5635 5633 5631 5630 5628 5626 5623 5618 5615 5612 5614 5615 5614 5612 5610 5608 5606 5601 5597 5597 5597 5595 5593
5669 5669 5669 5668 5666 5664 5662 5658 5655 5653 5650 5648 5646 5644 5642 5639 5637 5635 5634 5632 5629 5627 5626 5624 5623 5622 5620 5615 5610 5606 5609 5609 5609 5607 5605 5600 5598 5595 5590 5591 5591 5589 5588
5661 5661 5660 5659 5658 5657 5654 5652 5650 5648 5645 5642 5640 5638 5636 5633 5631 5629 5628 5626 5624 5622 5620 5619 5617 5616 5614 5611 5606 5602 5603 5603 5602 5601 5599 5597 5591 5587 5584 5583 5585 5583 5580
5654 5653 5652 5651 5650 5649 5647 5645 5644 5642 5639 5636 5633 5631 5629 5627 5625 5622 5621 5620 5618 5615 5613 5612 5611 5609 5608 5604 5601 5597 5595 5595 5595 5594 5593 5591 5585 5581 5578 5576 5576 5573 5570
5648 5646 5644 5643 5643 5642 5640 5638 5637 5634 5631 5628 5625 5623 5622 5619 5618 5616 5614 5612 5610 5608 5607 5605 5604 5603 5602 5599 5594 5591 5588 5586 5586 5587 5585 5582 5578 5574 5572 5569 5567 5565 5565
5640 5639 5637 5636 5635 5634 5632 5631 5629 5627 5624 5621 5619 5617 5615 5612 5610 5608 5607 5605 5604 5602 5601 5599 5597 5596 5595 5593 5590 5587 5584 5580 5578 5577 5576 5572 5569 5567 5565 5564 5561 5560 5560
5632 5631 5629 5628 5627 5626 5624 5623 5621 5619 5616 5614 5612 5610 5607 5605 5602 5600 5599 5599 5597 5596 5594 5592 5590 5589 5587 5586 5582 5580 5579 5577 5574 5571 5569 5567 5565 5563 5562 5560 5559 5556 5554
5624 5622 5621 5619 5619 5618 5616 5614 5613 5611 5608 5606 5605 5602 5599 5597 5595 5593 5591 5588 5586 5585 5582 5581 5580 5580 5578 5576 5574 5572 5570 5569 5566 5563 5563 5562 5560 5558 5557 5556 5554 5552 5549